User: anonymous   Login
Location: Gallinara
(44.0333°N, 8.2333°E)
Time: 14:43:48
(UTC+00:00)
Language:

Cosmos 1980 Rocket - Orbit

View from above orbital plane
View from above orbital plane
View from above satellite
View from above satellite

Ground track
Ground track

The orbit data is extracted from the following two-line orbital elements,

1 19650U 88102B   20333.47003794 -.00000286  00000-0 -12136-3 0  9999
2 19650  71.0002 245.0136 0012139  59.7809 300.4515 14.15793226654371
Epoch (UTC): 28 November 2020 11:16:51
Eccentricity: 0.0012139
inclination: 71.0002°
perigee height: 831 km
apogee height: 848 km
right ascension of ascending node: 245.0136°
argument of perigee: 59.7809°
revolutions per day: 14.15793226
mean anomaly at epoch: 300.4515°
orbit number at epoch: 65437

The dashed part of the orbit path shows where the satellite is in the earth's shadow,  

DLR